Temp
44 44 45 46 46 47 47 47 47 47 47 47 47 47 48 49 50 51 53 53 52 52 50 49 49 50 49 49 48 47 46 46 43 47 47 40 36 36 37 37 38 38 40
43 43 43 43 43 43 43 44 44 44 44 45 44 44 45 46 47 47 47 49 49 49 50 48 48 48 47 49 48 46 45 45 43 42 45 36 35 35 36 35 35 36 37
41 42 42 42 42 41 41 41 41 41 41 41 41 42 43 43 45 46 46 47 48 48 48 48 48 48 46 46 46 45 44 43 43 42 42 32 33 33 32 32 33 33 34
39 39 38 38 38 39 39 39 38 38 38 38 39 38 38 39 39 41 42 45 46 46 47 47 47 45 45 45 43 43 42 41 40 40 40 38 31 30 32 30 29 31 31
37 37 36 36 36 36 35 35 35 35 36 36 36 37 37 37 37 38 39 40 40 41 42 43 44 43 40 43 42 41 40 39 39 38 37 32 29 28 28 29 29 29 30
35 34 34 33 33 33 33 33 33 34 34 34 34 34 34 35 38 39 39 38 37 37 38 39 38 36 38 39 41 42 42 37 36 37 37 35 34 31 30 28 28 26 24
33 32 31 31 31 32 31 31 32 32 32 32 33 33 33 34 37 39 39 36 36 37 36 36 35 35 35 36 38 39 39 40 41 38 35 35 33 31 30 28 28 28 27
31 30 29 30 29 29 29 29 31 31 30 31 32 32 32 33 37 38 38 36 36 36 36 35 35 35 35 34 34 34 34 35 36 37 35 34 34 32 32 31 30 29 28
31 31 30 29 27 28 27 28 29 30 31 30 31 31 30 31 35 37 37 35 34 34 35 35 34 34 35 37 34 33 33 33 35 38 37 36 36 35 33 31 28 27 25
29 28 27 27 25 25 26 26 27 27 29 30 30 31 29 29 33 36 36 34 32 33 34 33 33 34 35 36 33 32 31 30 31 32 32 34 34 33 34 32 31 28 26
25 26 27 28 25 26 26 27 26 25 28 28 29 30 29 29 29 34 36 33 32 32 33 32 32 34 35 36 36 32 32 31 32 32 31 31 31 32 32 32 32 30 28
21 21 22 26 29 29 30 29 29 27 27 27 26 28 28 28 29 33 35 36 36 32 31 31 31 33 35 35 34 33 34 33 32 31 30 30 29 30 30 31 30 29 30
15 15 17 22 25 28 30 30 31 30 28 25 25 25 26 28 27 31 32 34 34 31 31 32 34 34 34 33 34 34 31 31 30 29 28 28 29 29 27 25 24 23 22
11 15 18 19 22 24 29 29 29 29 28 26 27 27 27 24 25 26 31 31 30 30 30 29 32 33 34 33 32 32 31 31 30 29 28 27 28 27 25 25 23 23 21
11 15 17 19 19 21 25 29 29 29 29 28 29 29 28 24 26 32 31 29 28 30 25 27 30 31 31 31 31 30 30 30 29 29 28 26 26 25 23 23 22 21 20
10 14 15 15 17 20 24 27 31 31 34 33 33 32 32 30 33 34 33 33 33 33 25 26 27 28 28 28 28 27 26 26 27 27 27 26 25 24 21 21 20 20 18
4 9 11 13 15 17 22 25 22 25 31 31 30 31 33 32 32 33 33 33 32 29 23 22 22 23 23 23 23 22 21 21 23 23 23 22 22 21 20 19 18 17 16
1 5 8 11 13 16 20 23 21 19 18 19 25 27 28 30 31 33 31 27 21 20 19 18 18 18 18 18 19 19 18 18 18 18 17 17 17 18 17 17 16 15 14
3 7 9 11 13 15 19 21 20 18 17 15 17 22 20 25 24 24 24 19 16 14 14 12 13 13 13 14 14 13 13 12 13 12 12 12 13 14 12 13 12 10 9
3 5 9 10 12 15 17 19 18 18 17 17 17 17 18 17 13 11 11 12 11 10 10 9 8 8 8 10 10 11 10 9 9 8 7 7 8 10 8 7 7 7 6
3 6 7 9 10 14 16 19 18 18 16 15 14 19 18 11 9 7 6 6 6 6 6 6 4 4 5 5 6 6 4 4 2 3 3 2 2 2 0 3 0 -1 -1
3 6 7 8 10 13 15 17 17 16 14 13 10 13 14 9 7 5 4 2 1 1 1 2 0 -1 -1 -0 1 2 1 -2 -3 -4 -4 -6 -5 -5 -4 -3 -2 -3 -4
4 5 7 7 10 12 13 14 14 13 11 10 9 8 7 6 4 3 1 -0 0 -0 -1 0 -0 -3 -5 -5 -5 -3 -2 -3 -4 -7 -6 -7 -7 -6 -5 -3 -5 -5 -4
2 3 5 6 8 9 10 10 9 9 8 7 6 6 5 4 3 2 1 -0 -1 -3 -3 -3 -3 -3 -6 -8 -11 -13 -13 -13 -14 -12 -10 -7 -8 -10 -8 -8 -7 -8 -5
1 2 3 4 5 7 7 7 7 6 6 6 5 4 3 3 2 1 -0 -1 -2 -2 -3 -4 -6 -8 -10 -15 -15 -16 -16 -7 -15 -18 -15 -11 -10 -13 -13 -10 -10 -9 -8
0 2 2 3 4 4 5 5 4 4 4 3 3 3 2 2 1 0 -1 -2 -2 -3 -5 -7 -9 -13 -14 -13 -14 -14 -14 -5 -11 -15 -14 -10 -11 -12 -13 -12 -15 -9 -9
MSLP
1022.94 1022.83 1022.65 1022.41 1022.23 1022.01 1021.88 1021.76 1021.50 1021.19 1020.82 1020.60 1020.27 1020.12 1019.85 1019.70 1019.67 1019.53 1019.16 1018.89 1018.64 1018.55 1018.48 1018.50 1018.39 1018.53 1018.42 1018.48 1018.60 1018.60 1018.58 1018.78 1018.03 1016.49 1017.35 1017.94 1018.48 1018.75 1018.91 1019.02 1018.95 1019.21 1019.33
1023.33 1023.13 1022.96 1022.88 1022.64 1022.55 1022.42 1022.18 1021.92 1021.51 1021.04 1020.76 1020.26 1020.02 1019.70 1019.45 1019.34 1019.04 1018.74 1018.64 1018.37 1018.07 1017.85 1017.86 1017.66 1017.90 1017.75 1017.73 1017.70 1017.51 1017.48 1017.54 1017.40 1016.53 1017.14 1017.54 1017.92 1018.01 1018.07 1018.26 1018.42 1018.53 1018.67
1023.55 1023.38 1023.15 1023.09 1022.67 1022.66 1022.52 1022.34 1022.03 1021.89 1021.48 1020.78 1020.48 1020.17 1019.86 1019.48 1019.01 1018.48 1018.15 1017.83 1017.61 1017.35 1017.24 1017.09 1016.95 1017.07 1016.90 1016.89 1016.79 1016.68 1016.56 1016.56 1016.58 1016.42 1016.02 1017.09 1017.34 1017.51 1017.90 1018.18 1018.25 1018.26 1018.34
1024.46 1024.37 1024.10 1023.92 1023.66 1023.56 1023.27 1022.93 1022.56 1022.04 1021.59 1021.17 1020.76 1020.31 1019.90 1019.47 1018.97 1018.44 1018.05 1017.58 1017.09 1016.78 1016.57 1016.38 1016.22 1016.22 1016.02 1015.96 1015.92 1015.71 1015.68 1015.78 1015.90 1015.79 1015.57 1016.08 1016.91 1017.25 1017.44 1017.69 1017.80 1017.91 1018.08
1025.00 1024.81 1024.62 1024.42 1024.20 1024.00 1023.63 1023.21 1022.78 1022.34 1021.91 1021.52 1020.98 1020.30 1019.79 1019.30 1018.81 1018.41 1017.93 1017.28 1016.91 1016.55 1016.33 1016.05 1015.75 1015.45 1015.30 1015.12 1015.10 1014.96 1015.01 1014.93 1014.96 1014.96 1014.88 1015.49 1016.10 1016.59 1016.54 1016.80 1017.04 1017.46 1017.86
1025.13 1024.99 1024.84 1024.65 1024.53 1024.31 1023.99 1023.54 1023.01 1022.49 1022.07 1021.60 1021.02 1020.59 1019.86 1019.20 1018.52 1018.17 1017.74 1017.14 1016.76 1016.27 1015.81 1015.49 1015.28 1015.11 1014.91 1014.76 1014.61 1014.42 1014.38 1014.22 1014.10 1014.16 1014.22 1014.14 1014.65 1015.22 1015.79 1016.18 1016.79 1017.46 1017.96
1024.60 1024.59 1024.52 1024.36 1024.20 1024.00 1023.72 1023.27 1022.82 1022.34 1021.86 1021.45 1020.99 1020.42 1019.71 1019.12 1018.30 1017.76 1017.34 1016.86 1016.41 1015.92 1015.59 1015.21 1014.92 1014.78 1014.50 1014.35 1014.05 1013.82 1013.57 1013.41 1013.09 1013.04 1013.05 1013.24 1013.84 1014.20 1014.92 1015.55 1015.91 1016.27 1016.77
1024.53 1024.63 1024.62 1024.45 1024.22 1023.93 1023.57 1023.18 1022.67 1022.26 1021.75 1021.20 1020.57 1020.00 1019.40 1018.70 1018.00 1017.52 1016.87 1016.30 1016.01 1015.64 1015.31 1014.92 1014.56 1014.18 1013.91 1013.85 1013.60 1013.35 1013.14 1012.98 1012.84 1012.25 1012.21 1012.54 1012.97 1013.67 1014.09 1014.58 1015.42 1016.41 1016.71
1024.60 1024.67 1024.56 1024.40 1024.17 1023.76 1023.27 1022.88 1022.45 1022.05 1021.38 1020.97 1020.45 1019.76 1019.15 1018.34 1017.71 1017.14 1016.58 1016.12 1015.48 1014.92 1014.55 1014.45 1014.16 1013.82 1013.55 1013.32 1013.10 1012.94 1012.68 1012.50 1012.34 1011.94 1012.05 1012.35 1012.55 1013.02 1013.82 1014.53 1014.87 1015.72 1016.58
1025.26 1025.12 1025.02 1024.73 1024.40 1024.10 1023.67 1023.33 1022.75 1022.32 1021.46 1020.77 1019.88 1019.43 1018.68 1017.88 1017.42 1016.87 1016.31 1015.68 1015.26 1014.62 1014.31 1013.91 1013.63 1013.38 1013.26 1012.82 1012.46 1012.64 1012.32 1012.40 1012.33 1012.46 1012.15 1012.42 1012.60 1012.96 1013.21 1013.90 1014.43 1015.05 1015.49
1025.70 1025.33 1025.02 1024.75 1024.58 1024.01 1023.40 1023.13 1022.67 1022.25 1021.30 1020.49 1019.77 1019.08 1018.37 1017.63 1017.12 1016.62 1015.99 1015.43 1014.96 1014.46 1014.07 1013.77 1013.52 1013.02 1012.59 1012.30 1012.26 1011.96 1012.39 1012.46 1012.28 1012.57 1012.60 1012.78 1012.83 1013.36 1013.80 1014.23 1014.45 1014.80 1015.27
1025.71 1025.35 1024.91 1024.42 1023.94 1023.46 1022.87 1022.46 1022.06 1021.69 1021.06 1020.27 1019.35 1018.54 1018.11 1017.44 1016.87 1016.22 1015.55 1014.99 1014.60 1013.99 1013.90 1013.72 1013.30 1012.90 1012.44 1012.12 1011.86 1011.92 1012.49 1012.42 1012.65 1012.86 1013.10 1013.62 1013.63 1013.80 1014.13 1014.55 1015.01 1015.23 1015.63
1025.81 1025.38 1024.77 1024.14 1023.54 1023.01 1022.33 1021.68 1021.13 1020.80 1020.38 1019.85 1019.26 1018.47 1017.85 1017.37 1016.69 1015.95 1015.35 1014.70 1014.27 1014.18 1014.02 1013.57 1013.09 1012.82 1012.51 1012.01 1012.03 1012.09 1012.49 1012.74 1013.13 1013.43 1013.62 1014.26 1014.34 1014.89 1015.14 1015.49 1016.13 1016.45 1016.90
1025.91 1025.29 1024.51 1023.88 1023.14 1022.52 1021.84 1021.18 1020.54 1020.12 1019.70 1019.22 1018.68 1018.18 1017.59 1017.21 1016.62 1015.89 1015.26 1014.78 1014.54 1014.29 1013.96 1013.61 1013.23 1012.94 1012.66 1012.62 1012.54 1012.76 1012.80 1013.08 1013.54 1013.92 1014.29 1014.98 1015.09 1015.57 1015.80 1015.98 1016.55 1017.08 1017.74
1025.98 1025.25 1024.39 1023.68 1022.97 1022.21 1021.46 1020.58 1019.94 1019.51 1019.18 1018.80 1018.19 1017.70 1017.30 1016.88 1016.33 1015.81 1015.40 1015.15 1014.86 1014.49 1014.16 1013.82 1013.45 1013.30 1013.33 1013.50 1013.27 1013.33 1013.33 1013.57 1013.87 1014.39 1014.87 1015.14 1015.39 1015.83 1016.38 1016.60 1016.90 1017.51 1018.15
1025.91 1025.04 1024.30 1023.56 1022.77 1021.99 1020.93 1019.79 1019.49 1019.02 1018.59 1018.46 1018.17 1017.56 1016.69 1016.53 1016.08 1015.62 1015.39 1015.33 1015.15 1014.93 1014.82 1014.75 1014.46 1014.31 1014.26 1014.32 1014.45 1014.42 1014.43 1014.41 1014.76 1014.92 1015.39 1015.82 1016.14 1016.46 1017.03 1017.43 1017.65 1018.08 1018.81
1025.75 1024.85 1024.10 1023.43 1022.62 1021.69 1020.70 1019.70 1019.01 1018.46 1018.26 1018.18 1017.98 1017.53 1016.77 1016.33 1015.97 1015.75 1015.54 1015.62 1015.74 1015.61 1015.86 1015.97 1015.92 1015.80 1015.76 1015.77 1015.79 1015.92 1016.13 1016.22 1016.10 1016.17 1016.38 1016.68 1016.97 1017.33 1017.72 1018.12 1018.46 1018.87 1019.48
1025.61 1024.83 1023.89 1023.03 1022.30 1021.43 1020.49 1019.52 1019.04 1018.70 1018.51 1018.23 1017.96 1017.72 1017.38 1016.88 1016.42 1015.89 1015.97 1016.13 1016.75 1017.13 1017.31 1017.42 1017.43 1017.37 1017.21 1017.21 1017.25 1017.23 1017.33 1017.43 1017.47 1017.64 1017.74 1017.88 1018.09 1018.32 1018.50 1018.78 1019.16 1019.56 1020.11
1025.21 1024.32 1023.49 1022.62 1021.79 1020.94 1020.11 1019.25 1018.64 1018.36 1018.34 1018.40 1018.28 1017.79 1017.71 1017.53 1017.50 1017.15 1016.97 1017.32 1017.97 1018.41 1018.72 1018.78 1018.81 1018.76 1018.69 1018.63 1018.68 1018.74 1018.82 1019.02 1019.02 1018.91 1019.08 1019.10 1019.11 1019.09 1019.46 1019.77 1020.16 1020.49 1020.74
1024.56 1023.87 1023.13 1022.32 1021.37 1020.45 1019.60 1018.82 1018.29 1018.19 1018.35 1018.42 1018.37 1018.15 1018.01 1018.03 1018.55 1018.70 1018.89 1019.05 1019.26 1019.61 1019.86 1019.94 1020.05 1020.00 1019.93 1019.76 1019.70 1019.67 1019.72 1019.82 1019.96 1020.00 1020.15 1020.20 1020.30 1020.25 1020.55 1020.76 1021.00 1021.37 1021.72
1024.25 1023.43 1022.61 1021.92 1021.03 1020.12 1019.18 1018.38 1018.04 1018.16 1018.45 1018.73 1018.72 1018.37 1018.41 1018.81 1019.50 1019.81 1020.12 1020.44 1020.57 1020.77 1020.94 1020.91 1021.02 1021.06 1020.93 1020.88 1020.75 1020.65 1020.71 1020.92 1021.06 1021.08 1021.16 1021.30 1021.35 1021.42 1021.70 1021.72 1022.00 1022.14 1022.34
1023.67 1022.87 1022.16 1021.35 1020.44 1019.63 1018.82 1018.29 1018.11 1018.28 1018.62 1019.03 1019.43 1019.41 1019.45 1019.84 1020.32 1020.71 1021.16 1021.46 1021.70 1021.81 1021.79 1021.74 1021.81 1022.00 1022.05 1021.87 1021.67 1021.52 1021.60 1021.78 1021.92 1021.95 1021.96 1022.06 1022.14 1022.31 1022.34 1022.49 1022.58 1022.70 1022.90
1023.25 1022.57 1021.71 1020.87 1020.10 1019.34 1018.83 1018.55 1018.51 1018.70 1019.01 1019.30 1019.74 1020.15 1020.37 1020.74 1021.21 1021.62 1021.96 1022.18 1022.30 1022.35 1022.33 1022.19 1022.18 1022.45 1022.66 1022.61 1022.50 1022.24 1022.09 1022.16 1022.26 1022.51 1022.42 1022.56 1022.64 1022.72 1022.79 1022.85 1023.06 1023.25 1023.34
1023.04 1022.35 1021.68 1021.00 1020.33 1019.68 1019.33 1019.26 1019.22 1019.32 1019.58 1019.75 1020.11 1020.60 1020.87 1021.20 1021.54 1021.96 1022.24 1022.46 1022.63 1022.76 1022.75 1022.65 1022.62 1022.61 1022.81 1022.96 1023.01 1022.98 1022.83 1022.80 1022.83 1022.82 1022.75 1022.71 1022.95 1023.15 1023.26 1023.42 1023.49 1023.63 1023.61
1023.03 1022.53 1022.01 1021.49 1020.95 1020.43 1020.10 1020.10 1020.11 1020.22 1020.30 1020.35 1020.66 1021.10 1021.40 1021.56 1021.81 1022.11 1022.30 1022.48 1022.66 1022.66 1022.72 1022.75 1022.79 1022.85 1022.90 1023.05 1023.01 1022.96 1022.86 1022.58 1022.77 1022.90 1023.04 1023.06 1023.08 1023.20 1023.36 1023.49 1023.65 1023.75 1023.75
1023.45 1022.85 1022.53 1022.09 1021.71 1021.31 1021.10 1021.02 1020.99 1021.10 1021.11 1021.05 1021.26 1021.54 1021.68 1021.80 1021.95 1022.13 1022.30 1022.44 1022.52 1022.54 1022.60 1022.70 1022.72 1022.85 1022.79 1022.68 1022.63 1022.55 1022.50 1022.24 1022.30 1022.49 1022.79 1022.96 1023.08 1023.19 1023.35 1023.47 1023.69 1023.65 1023.67
Wind_Speed
8 6 7 8 7 6 6 6 6 6 5 6 5 6 7 8 9 10 12 12 12 11 10 11 14 13 10 9 9 10 11 11 15 12 6 4 7 9 8 11 11 12 12
6 4 5 4 4 5 6 7 7 7 6 6 6 6 7 8 9 9 11 11 12 13 12 11 13 8 12 11 9 12 12 11 11 19 11 4 8 8 8 10 9 9 10
9 10 11 11 11 11 10 9 8 8 7 7 6 7 8 8 9 9 10 11 12 12 12 12 12 12 11 10 11 11 9 9 10 11 12 2 4 2 4 5 7 8 7
7 6 7 8 8 8 9 9 9 9 9 10 8 8 7 8 8 9 9 12 12 11 12 11 11 11 14 12 11 12 10 8 9 10 10 7 3 3 4 4 6 6 6
3 4 5 6 6 7 8 8 9 8 8 8 9 10 8 7 6 9 9 10 11 12 11 11 12 12 13 13 8 9 9 9 9 9 10 4 4 4 6 4 6 4 3
1 2 3 3 4 5 6 7 7 7 7 7 8 8 9 6 14 16 14 10 9 10 10 9 8 8 10 14 16 17 14 9 11 9 10 11 10 5 4 5 5 4 3
4 4 4 5 6 6 7 7 7 7 7 8 8 8 9 9 16 16 14 8 9 9 9 8 7 6 8 9 13 17 16 17 20 11 13 10 6 8 7 7 8 6 4
3 3 3 5 6 6 6 6 8 7 9 9 9 9 10 8 17 17 14 7 7 8 9 9 9 8 6 8 8 9 9 9 10 9 7 6 6 7 10 8 7 5 6
7 8 8 8 9 10 10 11 10 10 11 8 8 9 10 10 17 17 14 7 7 8 8 8 7 8 10 13 8 8 8 6 6 12 9 10 12 15 11 8 8 9 3
7 9 8 8 7 9 8 9 8 8 10 8 10 9 9 10 14 17 14 6 8 7 6 5 9 9 14 13 7 7 8 4 3 2 3 6 8 11 19 9 9 8 6
6 6 7 9 9 9 8 8 7 9 10 10 10 8 9 9 9 17 17 7 7 7 6 5 4 10 11 12 12 4 5 4 6 3 3 4 6 6 5 4 4 6 4
5 6 7 7 6 7 10 8 8 7 9 11 9 9 5 8 11 13 16 15 14 4 4 4 5 11 12 11 7 4 6 5 3 4 4 3 4 5 5 5 6 7 6
5 6 6 8 8 8 9 9 8 7 8 8 7 8 8 7 7 14 15 15 2 2 4 7 10 10 9 4 4 3 5 3 3 3 4 2 3 4 7 6 9 11 11
6 7 7 7 8 8 7 6 6 6 7 6 7 7 8 6 6 5 5 4 5 4 5 4 4 5 4 5 4 5 4 4 3 4 4 3 3 2 3 3 3 4 4
6 7 7 6 7 9 8 8 6 5 5 5 7 6 6 6 4 11 3 2 2 4 3 3 2 3 4 4 5 4 4 4 5 3 3 3 3 3 3 3 4 3 3
7 5 5 6 6 7 8 8 10 16 12 7 12 11 4 8 12 10 2 2 4 5 3 3 5 5 5 5 5 6 6 7 5 4 3 2 3 3 4 3 3 3 3
6 7 6 7 7 7 8 7 8 5 9 8 7 11 13 7 7 5 1 12 13 7 4 5 5 6 6 6 6 6 6 5 5 5 5 4 4 5 3 3 4 3 3
6 9 7 7 7 7 8 8 6 4 3 3 4 4 10 13 13 6 9 8 5 7 5 5 5 6 6 6 6 5 5 5 6 5 6 5 4 3 3 4 3 3 3
7 6 7 7 7 9 9 8 6 3 3 2 2 2 5 7 10 14 15 5 5 5 5 5 5 5 5 5 5 5 6 5 5 5 4 5 4 3 4 4 4 4 4
6 10 10 7 8 8 8 7 4 3 2 1 1 2 2 3 4 5 6 5 5 5 4 5 4 5 4 4 4 4 5 5 5 5 5 4 4 4 4 3 2 2 1
6 7 9 8 7 7 7 7 4 3 3 3 2 4 8 5 5 5 4 5 4 4 4 4 4 4 4 4 4 4 5 4 4 3 3 3 2 3 2 3 3 3 3
6 7 7 7 6 6 5 3 2 3 4 4 3 5 11 5 5 5 5 4 3 3 3 3 3 4 3 3 3 4 4 4 3 2 3 3 3 3 2 3 2 2 2
6 7 7 5 5 5 2 0 2 3 4 4 4 4 4 4 4 4 3 2 2 2 2 3 3 3 2 2 2 2 3 3 2 2 3 3 2 3 2 2 2 2 1
5 5 5 4 4 3 2 2 3 4 4 4 4 3 3 3 3 3 2 1 2 1 1 1 2 2 2 1 0 0 1 2 2 2 3 3 3 3 2 2 2 2 2
4 4 4 4 4 3 3 3 3 2 2 3 3 2 2 2 2 2 1 1 0 0 1 0 0 1 2 3 3 4 4 3 4 4 2 3 3 4 2 1 2 1 2
5 5 4 4 4 4 3 2 2 2 2 2 2 1 1 1 1 1 1 1 2 2 2 2 2 4 5 5 5 6 6 7 6 7 4 3 4 3 2 2 3 2 3
Wind_Direction
23 14 21 21 16 18 16 359 345 321 317 297 286 282 275 271 262 257 259 261 255 252 231 229 233 226 227 226 221 221 226 226 252 267 265 183 194 209 213 218 220 221 228
15 13 25 17 16 19 8 352 341 330 320 301 296 280 275 269 262 254 258 258 260 259 255 242 242 238 239 236 230 230 227 226 239 264 261 203 212 215 218 210 214 219 225
11 13 12 7 9 3 358 352 348 333 317 318 312 298 285 273 267 256 253 257 254 257 256 253 254 251 244 239 235 238 228 230 234 249 265 150 200 176 205 219 220 223 221
6 4 9 1 356 347 341 342 341 341 337 338 329 308 296 291 279 273 271 271 266 261 259 253 256 244 246 241 232 233 236 232 234 244 253 247 192 182 207 201 214 208 207
324 4 355 341 337 332 334 331 328 332 333 327 325 326 319 311 300 294 277 266 264 267 262 260 256 253 240 239 237 239 236 236 242 241 244 208 192 183 202 191 212 183 179
348 6 311 304 302 310 313 319 314 316 316 312 319 311 315 312 307 307 296 280 267 261 265 259 252 254 261 257 255 255 250 234 239 237 244 239 232 204 166 182 167 161 206
8 357 348 342 335 330 319 318 321 319 317 318 314 311 310 303 309 312 306 283 274 267 264 263 261 244 248 259 262 263 263 257 245 236 238 234 222 177 175 181 187 183 170
347 316 318 339 330 323 321 317 323 319 315 314 312 311 308 304 313 316 311 291 282 275 268 266 266 269 244 255 263 262 261 256 257 246 221 209 199 177 188 182 165 126 102
1 350 346 345 337 337 337 337 330 323 323 311 305 304 305 306 310 313 314 296 285 274 263 262 263 271 271 277 271 264 268 260 263 247 231 210 188 175 155 142 153 149 128
352 335 331 329 327 319 314 319 316 306 299 300 301 292 289 294 298 304 307 290 288 289 280 263 267 276 282 278 264 269 261 231 193 173 148 169 169 167 163 169 158 161 131
320 310 309 314 306 296 297 309 307 309 304 303 290 289 288 292 296 308 306 297 284 286 283 283 287 296 291 290 281 250 248 176 186 155 123 131 130 139 127 133 149 149 124
299 299 294 294 297 299 299 293 286 284 301 309 299 302 283 293 302 307 304 297 291 281 297 302 300 308 304 298 299 222 227 166 131 121 119 118 116 123 117 106 88 79 56
314 299 291 290 287 281 283 286 295 294 305 304 302 310 312 310 306 313 313 301 12 341 308 302 320 328 326 327 135 162 115 111 117 121 108 89 75 83 100 83 80 80 69
300 297 297 292 297 287 283 271 276 287 302 288 301 302 311 305 311 319 315 4 5 345 336 323 329 348 335 76 59 75 83 88 83 87 83 82 87 80 89 84 92 94 81
281 282 287 290 291 296 281 287 272 259 255 293 297 283 297 302 294 314 323 334 328 339 335 359 18 51 69 57 68 73 86 83 91 100 110 102 97 105 71 69 91 92 87
301 294 293 294 290 286 286 290 271 282 276 308 327 338 296 263 293 304 331 336 11 16 31 21 38 44 51 54 60 56 42 51 50 70 71 60 75 85 87 61 64 74 96
289 302 298 290 287 288 287 282 293 298 276 263 325 2 7 303 297 302 140 64 39 52 53 39 42 39 44 49 53 51 50 32 38 51 57 57 71 80 81 84 86 85 84
284 279 280 282 280 281 279 279 271 260 268 289 311 358 14 22 32 57 89 67 43 32 40 45 49 45 48 51 49 56 56 50 54 57 63 59 60 80 86 94 83 93 116
299 292 286 285 280 275 277 276 262 227 214 245 308 324 11 14 41 48 59 71 84 63 43 49 42 46 52 57 63 66 66 61 62 69 62 62 55 76 78 78 83 77 95
286 276 279 282 284 280 276 271 231 201 183 148 29 342 349 52 45 45 44 56 68 69 64 66 53 54 57 61 68 74 78 69 65 63 62 62 54 67 92 105 94 111 84
285 286 281 281 276 277 277 262 212 174 147 105 37 46 91 102 95 80 73 61 65 68 71 73 65 58 51 50 57 70 75 76 69 79 77 65 56 86 63 65 92 85 117
275 284 284 278 282 284 285 266 153 140 133 123 86 53 85 81 89 88 81 76 70 69 58 76 72 56 41 50 52 82 90 100 101 100 100 95 98 109 113 106 104 110 123
293 292 290 286 287 293 299 55 110 119 123 116 109 98 81 83 83 84 90 84 73 71 57 73 94 89 68 58 37 48 122 136 142 144 132 136 127 119 119 123 135 130 154
299 301 305 310 320 338 28 59 73 87 108 112 108 103 103 105 107 112 115 111 104 82 56 73 85 111 120 122 86 144 144 152 163 161 139 134 134 131 124 119 149 142 155
329 339 342 340 347 7 40 51 63 71 97 107 109 108 109 119 121 122 127 112 116 190 164 149 165 196 209 216 220 218 229 207 183 163 148 137 153 160 145 141 153 164 164
340 356 354 356 4 14 26 39 49 43 61 77 81 94 128 148 168 197 222 247 249 248 255 243 241 247 246 242 237 229 225 218 198 190 176 173 170 177 184 181 176 189 183